09:14
Airports
History
Links
Donate
Help keep this website running!
PayPal
Bitcoin
Information on this page is community maintained and may be outdated or inaccurate and is intended for reference only or PC simulator navigating!
Always use approved charts for navigating.
ME94
Clark Field
Clark Field (ME94)
Union, Maine, United States (4862)
4
Lat/Lng:44° 13' 0.28" N / 69° 17' 28.16" W
44.216744 / -69.291155
Elevation:54'ft 16mMSL
ID / ICAO:ME94
Runways:1
Longest:(09-27) 547.2m 1,795ft Grass
Distance To
Airport ID:
Nearby VORs <50NM
Nearby NDBs
Nearby WeatherUpdated 04-24-17 08:56 GMT
Nearby weather at KRKD, Knox County Rgnl located 14.4 nautical miles from ME94
Altimeter: 30.08
Visibility: 6.0 statute miles
Wind: 0 knots (000°)
Temp: 3°c 37°f
Humidity: 100.0%

METAR: KRKD 240856Z AUTO 00000KT 6SM BR CLR 03/03 A3008 RMK AO2 SLP186 T00330028 53016

(Powered by phpweather)
Runway 09 / 27
Dimensions:547.2 x 24.4m 1795' x 80'ft
Surface:Grass
Runway 09 [A]Runway 27 [B]
Heading:072°TH 252°TH
Lat:
Lng:
44° 12' 57.53"N
69° 17' 39.95"W
44° 13' 3.02"N
69° 17' 16.37"W
Google Map
Nearby Airports
(R) Robinson Ridge Fld 7.4 NM
ME34 WSW 246°
(R) Bald Mountain 8.4 NM
ME14 E 83°
4 Kimberly 10.2 NM
ME56 S 183°
4 Youngtown Field 10.4 NM
ME29 ENE 66°
(U) Knox County Rgnl 14.4 NM
KRKD (WX) SE 138°
(U) Belfast Muni 19.2 NM
KBST NE 46°
(U) Islesboro 19.7 NM
57B ENE 72°
VFR Chart
Flight Planning at SkyVector.com